[[{"header":{"parameterUnit":"m.s-1","parameterCategory":1,"la1":30.2991,"la2":30.254,"lo1":-89.0895,"lo2":-89.0444,"dy":0.0017,"dx":0.0017,"nx":28,"ny":28,"refTime":"2023-09-18T03:00:00:Z","depth":0,"parameterNumber":2,"parameterNumberName":"U-component_of_WINDS"},"data":[0,0,0,0,0,0,0,0,0,0,0,0,0,0,0,0,0,0,0,0,0,0,0,0,0,0,0,0,0,0,0,0,0,0,0,0,0,0,0,0,0,0,0,0,0,0,0,0,0,0,0,0,0,0,0,0,0,0,-2.7053,-2.7053,0,-2.7069,-2.7069,-2.7069,-2.6911,-2.6907,-2.6902,-2.6898,-2.6919,-2.6923,-2.6928,0,0,0,0,0,0,0,0,0,0,0,0,0,-2.6887,-2.6891,-2.7052,-2.7053,-2.7053,-2.7069,-2.7069,-2.7069,-2.6912,-2.6907,-2.6901,-2.6896,-2.6917,-2.6923,-2.6928,0,0,0,0,0,0,0,0,0,0,0,0,0,-2.6937,-2.6892,-2.7052,-2.6976,-2.697,-2.7069,-2.7069,-2.7069,-2.6913,-2.6906,-2.69,-2.6894,-2.6916,-2.6922,-2.6929,-2.7104,0,0,-2.695,-2.6953,0,0,0,0,0,0,0,0,-2.6934,-2.6943,-2.6987,-2.6982,-2.6974,-2.6981,-2.7018,-2.7081,-2.6915,-2.6935,-2.6898,-2.6891,-2.6945,-2.6949,-2.6967,-2.7104,-2.7105,-2.6951,-2.6955,-2.6958,-2.696,0,0,0,0,0,0,0,-2.6931,-2.6942,-2.7059,-2.6988,-2.698,-2.6942,-2.6942,-2.7029,-2.6977,-2.6932,-2.6921,-2.6925,-2.694,-2.6961,-2.6966,-2.7106,-2.6951,-2.6957,-2.6961,-2.6964,-2.7386,-2.7392,0,0,0,0,0,0,-2.6937,-2.694,-2.7058,-2.7059,-2.6938,-2.695,-2.695,-2.6986,-2.6975,-2.6967,-2.693,-2.6917,-2.6952,-2.6958,-2.6966,-2.7169,-2.6958,-2.6965,-2.6969,-2.7379,-2.7387,-2.7395,0,0,0,0,0,0,-2.6934,-2.695,-2.7058,-2.6996,-2.7007,-2.696,-2.7001,-2.6989,-2.7009,-2.6974,-2.6964,-2.6961,-2.6947,-2.6957,-2.707,-2.7168,-2.6968,-2.6974,-2.737,-2.7381,-2.7391,-2.7578,0,0,0,0,0,0,-2.693,-2.6949,-2.7015,-2.6999,-2.7011,-2.7162,-2.7007,-2.6995,-2.7021,-2.7005,-2.6999,-2.6992,-2.6943,-2.7061,-2.7077,-2.7174,-2.698,-2.7361,-2.7375,-2.7388,-2.7563,-2.7593,-2.762,0,0,0,0,0,-2.6925,-2.7068,-2.7019,-2.7034,-2.7092,-2.7167,-2.7174,-2.7113,-2.703,-2.7096,-2.7072,-2.6993,-2.7154,-2.7073,-2.7091,-2.7191,-2.7355,-2.7371,-2.7387,-2.755,-2.7587,-2.7619,0,0,0,0,0,0,-2.7099,-2.7065,-2.701,-2.7152,-2.7164,-2.714,-2.7222,-2.7155,-2.7191,-2.7174,-2.7098,-2.7098,-2.7224,-2.7218,-2.7129,-2.7359,-2.724,-2.726,-2.7358,-2.7394,-2.7421,-2.7421,-2.6985,0,0,0,0,0,-2.7153,-2.7216,-2.7183,-2.7312,-2.732,-2.727,-2.7301,-2.7252,-2.7262,-2.7266,-2.7251,-2.7265,-2.7317,-2.7355,-2.7402,-2.756,-2.7557,-2.7637,-2.7666,-2.7689,-2.7709,-2.7791,-2.7827,-2.7447,-2.7446,-2.7446,0,0,-2.7268,-2.7256,-2.7302,-2.7346,-2.735,-2.7418,-2.7276,-2.7354,-2.7403,-2.7278,-2.7384,-2.7374,-2.7383,-2.752,-2.7579,-2.7519,-2.7812,-2.771,-2.7729,-2.7735,-2.7811,-2.7847,-2.7879,-2.7457,-2.7455,-2.7454,0,0,-2.751,-2.7508,-2.7614,-2.762,-2.7625,-2.7591,-2.7617,-2.7603,-2.7591,-2.7695,-2.7603,-2.7661,-2.7754,-2.7765,-2.7782,-2.8026,-2.7954,-2.8043,-2.8193,-2.8275,-2.8305,-2.8331,-2.8419,-2.8451,-2.8062,-2.8062,-2.8063,0,-2.7652,-2.775,-2.7678,-2.7762,-2.7784,-2.7672,-2.7779,-2.7788,-2.781,-2.7829,-2.776,-2.7874,-2.7873,-2.801,-2.8069,-2.8086,-2.8114,-2.8045,-2.8306,-2.8331,-2.8355,-2.8438,-2.8471,-2.8073,-2.8072,-2.8071,-2.807,0,-2.7924,-2.7993,-2.8078,-2.81,-2.8131,-2.8227,-2.8171,-2.8211,-2.8159,-2.8132,-2.824,-2.8233,-2.8277,-2.8305,-2.8256,-2.8435,-2.8397,-2.8319,-2.8199,-2.8403,-2.848,-2.8511,-2.8089,-2.8085,-2.8082,-2.8079,0,0,-2.828,-2.8258,-2.8291,-2.8299,-2.8296,-2.8348,-2.8438,-2.8479,-2.8516,-2.8534,-2.8608,-2.8688,-2.8614,-2.8635,-2.8585,-2.8656,-2.885,-2.8568,-2.8567,-2.8622,-2.9048,-2.9109,-2.9147,-2.8801,-2.8807,-2.8811,-2.9047,0,-2.8517,-2.8668,-2.8606,-2.8763,-2.8826,-2.8719,-2.8796,-2.8804,-2.878,-2.883,-2.8803,-2.8862,-2.876,-2.8771,-2.8837,-2.8813,-2.8935,-2.8795,-2.8871,-2.8874,-2.8874,-2.9186,-2.9251,-2.9474,-2.9077,-2.9082,-2.9085,0,-2.8815,-2.8843,-2.9007,-2.8991,-2.9015,-2.9086,-2.9118,-2.9167,-2.9172,-2.9149,-2.9171,-2.9105,-2.9192,-2.907,-2.9189,-2.9095,-2.9122,-2.9115,-2.9122,-2.9128,-2.8994,-2.9203,-2.9544,-2.9578,-2.9132,-2.9128,-2.9125,0,-2.906,-2.9139,-2.9246,-2.9256,-2.924,-2.9293,-2.9289,-2.9287,-2.9315,-2.9343,-2.936,-2.9398,-2.942,-2.9451,-2.9397,-2.9313,-2.9524,-2.9398,-2.9509,-2.9511,-2.9561,-2.9559,-2.9913,-2.9576,-2.9575,-2.9574,-2.9574,0,-2.9332,-2.9437,-2.9356,-2.9423,-2.9537,-2.9462,-2.9578,-2.9561,-2.9561,-2.9623,-2.9531,-2.9592,-2.9515,-2.9569,-2.9527,-2.9632,-2.9642,-2.9627,-2.9615,-2.9637,-2.9639,-2.9655,-2.9639,-2.9583,-2.9581,-2.958,-2.9578,0,-2.9627,-2.9576,-2.9687,-2.9661,-2.9657,-2.9742,-2.9721,-2.9782,-2.975,-2.9829,-2.9844,-2.9795,-2.9853,-2.98,-2.9856,-2.9828,-2.9969,-2.9933,-2.9967,-2.9958,-3.0073,-3.0063,-3.0451,-3.0498,-3.013,-3.0133,-3.0136,0,-2.9805,-2.9883,-2.9865,-2.9899,-2.99,-2.9957,-2.9984,-2.9913,-2.9946,-2.9956,-3.0016,-3.0065,-3.0101,-3.0198,-3.0168,-3.021,-3.0176,-3.0308,-3.0182,-3.0201,-3.0179,-3.0176,-3.0184,-3.0336,-3.034,-3.0343,-3.0346,0,-3.0128,-3.0098,-3.014,-3.0174,-3.0209,-3.0233,-3.0249,-3.0283,-3.0209,-3.0251,-3.0307,-3.0335,-3.039,-3.0441,-3.0472,-3.0468,-3.0397,-3.0386,-3.0414,-3.0438,-3.0455,-3.0448,-3.0039,-3.0378,-3.0375,-3.0373,-3.0371,-3.037,-3.037,-3.0434,-3.0431,-3.0481,-3.0485,-3.0502,-3.0557,-3.0531,-3.0577,-3.0616,-3.0571,-3.0641,-3.0642,-3.0677,-3.0681,-3.0735,-3.0679,-3.072,-3.0731,-3.0742,-3.0759,-3.0444,-3.074,-3.0739,-3.0738,-3.0737,-3.0737,0,-3.0689,-3.0681,-3.0727,-3.0752,-3.0791,-3.0717,-3.073,-3.0769,-3.0831,-3.0837,-3.0873,-3.0938,-3.0986,-3.0959,-3.1,-3.1048,-3.1016,-3.1061,-3.1058,-3.1059,-3.0806,-3.0778,-3.1087,-3.1087,-3.1086,-3.1086,-3.1086,-3.1086,-3.086,-3.0964,-3.0933,-3.1038,-3.1029,-3.1095,-3.1109,-3.1124,-3.1129,-3.1205,-3.1244,-3.1224,-3.1217,-3.1257,-3.1297,-3.1288,-3.1308,-3.1366,-3.1345,-3.1111,-3.1076,-3.1044,-3.1017,-3.137,-3.1371,-3.1593,-3.1595,-3.1597]},{"header":{"parameterUnit":"m.s-1","parameterCategory":1,"la1":30.2991,"la2":30.254,"lo1":-89.0895,"lo2":-89.0444,"dy":0.0017,"dx":0.0017,"nx":28,"ny":28,"refTime":"2023-09-18T03:00:00:Z","depth":0,"parameterNumber":3,"parameterNumberName":"V-component_of_WINDS"},"data":[0,0,0,0,0,0,0,0,0,0,0,0,0,0,0,0,0,0,0,0,0,0,0,0,0,0,0,0,0,0,0,0,0,0,0,0,0,0,0,0,0,0,0,0,0,0,0,0,0,0,0,0,0,0,0,0,0,0,-3.3161,-3.3162,0,-3.3245,-3.3246,-3.3247,-3.3211,-3.3209,-3.3207,-3.3205,-3.3288,-3.3292,-3.3296,0,0,0,0,0,0,0,0,0,0,0,0,0,-3.2964,-3.2968,-3.3161,-3.3162,-3.3163,-3.3245,-3.3246,-3.3247,-3.3212,-3.3209,-3.3207,-3.3204,-3.3287,-3.3292,-3.3297,0,0,0,0,0,0,0,0,0,0,0,0,0,-3.3049,-3.2969,-3.316,-3.3155,-3.3155,-3.3245,-3.3246,-3.3248,-3.3212,-3.3209,-3.3206,-3.3203,-3.3285,-3.3291,-3.3298,-3.3396,0,0,-3.3316,-3.3319,0,0,0,0,0,0,0,0,-3.3044,-3.3056,-3.3155,-3.3156,-3.3156,-3.3215,-3.3207,-3.3298,-3.3213,-3.3191,-3.3205,-3.3202,-3.3266,-3.3274,-3.3296,-3.34,-3.3404,-3.3317,-3.3321,-3.3323,-3.3325,0,0,0,0,0,0,0,-3.3039,-3.3053,-3.3194,-3.3156,-3.3157,-3.3147,-3.3156,-3.3224,-3.3244,-3.3192,-3.319,-3.3201,-3.3266,-3.329,-3.3298,-3.3405,-3.3317,-3.3322,-3.3326,-3.3328,-3.3593,-3.3597,0,0,0,0,0,0,-3.3033,-3.3048,-3.3191,-3.3197,-3.3092,-3.3153,-3.3163,-3.3199,-3.3243,-3.3247,-3.3203,-3.3199,-3.3281,-3.3291,-3.3301,-3.3419,-3.3323,-3.3329,-3.3333,-3.359,-3.3594,-3.3598,0,0,0,0,0,0,-3.3029,-3.3046,-3.3188,-3.3122,-3.3139,-3.316,-3.3201,-3.3202,-3.3227,-3.3252,-3.3255,-3.3225,-3.3279,-3.3292,-3.3373,-3.3421,-3.3332,-3.3337,-3.3586,-3.3591,-3.3596,-3.3656,0,0,0,0,0,0,-3.3024,-3.3045,-3.3084,-3.3123,-3.3143,-3.326,-3.3204,-3.3206,-3.3238,-3.3233,-3.3273,-3.3276,-3.3278,-3.3364,-3.3379,-3.3428,-3.3342,-3.3582,-3.3589,-3.3594,-3.365,-3.3663,-3.3673,0,0,0,0,0,-3.3017,-3.3097,-3.3086,-3.3104,-3.3192,-3.3263,-3.3274,-3.3275,-3.3242,-3.328,-3.3296,-3.3275,-3.3413,-3.3373,-3.3389,-3.3441,-3.3579,-3.3587,-3.3594,-3.3645,-3.366,-3.3673,0,0,0,0,0,0,-3.3062,-3.3102,-3.309,-3.3186,-3.3222,-3.3257,-3.3306,-3.3292,-3.3337,-3.333,-3.3328,-3.3338,-3.3421,-3.3439,-3.3393,-3.3538,-3.3491,-3.3502,-3.3524,-3.3539,-3.355,-3.3544,-3.3347,0,0,0,0,0,-3.3083,-3.3139,-3.317,-3.3251,-3.327,-3.3285,-3.3316,-3.3314,-3.335,-3.3365,-3.3387,-3.3422,-3.3473,-3.3507,-3.3555,-3.3652,-3.366,-3.3696,-3.3707,-3.3717,-3.3727,-3.3778,-3.3794,-3.3623,-3.3623,-3.3622,0,0,-3.3127,-3.3156,-3.3191,-3.3261,-3.3289,-3.3345,-3.3298,-3.336,-3.3401,-3.3374,-3.3452,-3.3469,-3.3508,-3.3597,-3.3637,-3.3614,-3.3776,-3.3727,-3.3734,-3.3738,-3.3788,-3.3804,-3.3818,-3.3628,-3.3627,-3.3626,0,0,-3.3236,-3.3264,-3.3335,-3.3363,-3.3406,-3.3415,-3.3432,-3.347,-3.348,-3.3559,-3.3539,-3.3588,-3.3676,-3.3705,-3.3731,-3.385,-3.3832,-3.3866,-3.3927,-3.3977,-3.3991,-3.4003,-3.4045,-3.406,-3.3875,-3.3876,-3.3876,0,-3.3286,-3.3371,-3.3372,-3.3436,-3.3467,-3.3446,-3.3516,-3.3543,-3.3599,-3.362,-3.3594,-3.3704,-3.3729,-3.3824,-3.3853,-3.3875,-3.3893,-3.3861,-3.3989,-3.4001,-3.4012,-3.4052,-3.4068,-3.3879,-3.3879,-3.3879,-3.3878,0,-3.3429,-3.3489,-3.354,-3.3596,-3.3632,-3.3699,-3.3709,-3.3745,-3.374,-3.3751,-3.3831,-3.386,-3.3913,-3.3936,-3.3931,-3.403,-3.4015,-3.3989,-3.3941,-3.4032,-3.407,-3.4085,-3.3885,-3.3883,-3.3882,-3.3881,0,0,-3.3569,-3.3624,-3.3643,-3.3668,-3.3713,-3.3758,-3.3823,-3.3877,-3.3908,-3.3947,-3.4,-3.4076,-3.4052,-3.4082,-3.4079,-3.4124,-3.4215,-3.4092,-3.4093,-3.4114,-3.4326,-3.4344,-3.4362,-3.4204,-3.4207,-3.4209,-3.4322,0,-3.3681,-3.3797,-3.3799,-3.3905,-3.3959,-3.3939,-3.3996,-3.4029,-3.4041,-3.4088,-3.4101,-3.4154,-3.4119,-3.4137,-3.418,-3.4195,-3.4258,-3.4187,-3.4252,-3.4255,-3.4243,-3.4382,-3.4402,-3.4507,-3.4337,-3.4339,-3.4341,0,-3.3828,-3.3872,-3.3983,-3.402,-3.4043,-3.4094,-3.4143,-3.4188,-3.4225,-3.423,-3.4263,-3.4254,-3.4319,-3.427,-3.4359,-3.4311,-3.4337,-3.4349,-3.4353,-3.4358,-3.4303,-3.439,-3.4541,-3.4556,-3.4364,-3.4362,-3.4361,0,-3.3918,-3.4005,-3.4083,-3.4105,-3.415,-3.4186,-3.4206,-3.4239,-3.4271,-3.4313,-3.4334,-3.4383,-3.441,-3.4447,-3.4451,-3.4415,-3.454,-3.4491,-3.4545,-3.4545,-3.4572,-3.457,-3.4728,-3.4591,-3.459,-3.459,-3.459,0,-3.4042,-3.4111,-3.4124,-3.4172,-3.4247,-3.4249,-3.4323,-3.434,-3.437,-3.442,-3.4405,-3.4452,-3.4455,-3.4502,-3.4505,-3.4578,-3.459,-3.4595,-3.4595,-3.4597,-3.4596,-3.4614,-3.4606,-3.4594,-3.4593,-3.4593,-3.4592,0,-3.4156,-3.4168,-3.4251,-3.4287,-3.4297,-3.4351,-3.4381,-3.4426,-3.4437,-3.45,-3.4514,-3.4531,-3.4586,-3.4594,-3.4658,-3.466,-3.4747,-3.474,-3.4735,-3.4734,-3.4787,-3.4782,-3.4962,-3.4985,-3.4833,-3.4834,-3.4836,0,-3.4234,-3.4287,-3.4328,-3.4361,-3.4383,-3.4436,-3.4469,-3.4472,-3.4506,-3.4551,-3.459,-3.4644,-3.4687,-3.4776,-3.4793,-3.4841,-3.4835,-3.4894,-3.4842,-3.4841,-3.4835,-3.4831,-3.4836,-3.4904,-3.4906,-3.4907,-3.4908,0,-3.4372,-3.4375,-3.4423,-3.4474,-3.4513,-3.4553,-3.459,-3.4617,-3.4625,-3.4664,-3.472,-3.4754,-3.482,-3.4873,-3.4921,-3.494,-3.4925,-3.4925,-3.494,-3.4941,-3.4936,-3.4939,-3.4762,-3.4921,-3.4919,-3.4918,-3.4918,-3.4917,-3.447,-3.4515,-3.4552,-3.4605,-3.4634,-3.4669,-3.4713,-3.4729,-3.4777,-3.4832,-3.483,-3.4892,-3.4926,-3.4989,-3.5012,-3.5059,-3.504,-3.5062,-3.5067,-3.5072,-3.5077,-3.4929,-3.5068,-3.5068,-3.5067,-3.5067,-3.5067,0,-3.4606,-3.4629,-3.4678,-3.4731,-3.4773,-3.4757,-3.4797,-3.4833,-3.4888,-3.4922,-3.4965,-3.5029,-3.508,-3.5102,-3.5152,-3.5186,-3.518,-3.5199,-3.5196,-3.52,-3.5092,-3.5074,-3.5202,-3.5202,-3.5202,-3.5202,-3.5202,-3.5202,-3.4682,-3.4758,-3.4765,-3.4854,-3.4876,-3.4937,-3.4962,-3.4993,-3.502,-3.5093,-3.5136,-3.515,-3.5178,-3.523,-3.5276,-3.5281,-3.53,-3.5321,-3.5323,-3.5222,-3.5208,-3.5195,-3.5178,-3.5325,-3.5325,-3.5427,-3.5427,-3.5428]}]]